When you browse on this site, cookies collect data to enhance your experience and personalize the content and advertising you see.
Visit our Privacy Policy to learn more. By continuing to use the site, you agree to this use of cookies and data.
  • In Latvia
  • List of Countries
  • For 7 days
  • Water Temperature
  • Satellite Maps
  • Weather Map
  • Weather Widgets
  • user-avatar
    Login

    Hourly Weather Nashavar

    Today, 20 January, Sunday

    Time Temperature Precipitation Wind Pressure Humidity
    00:00 +14°C° 0 mm 3 mps 734 mmHg 46%
    01:00 +14°C° 0 mm 3 mps 734 mmHg 49%
    02:00 +13°C° 0 mm 3 mps 734 mmHg 52%
    03:00 +13°C° 0 mm 3 mps 734 mmHg 53%
    04:00 +13°C° 0 mm 2 mps 734 mmHg 55%
    05:00 +13°C° 0 mm 2 mps 734 mmHg 56%
    06:00 +13°C° 0 mm 2 mps 734 mmHg 56%
    07:00 +13°C° 0 mm 2 mps 734 mmHg 56%
    08:00 +13°C° 0 mm 2 mps 734 mmHg 55%
    09:00 +14°C° 0 mm 2 mps 734 mmHg 51%
    10:00 +16°C° 0 mm 1 mps 734 mmHg 47%
    11:00 +18°C° 0 mm 1 mps 734 mmHg 43%
    12:00 +18°C° 0 mm 1 mps 734 mmHg 43%
    13:00 +17°C° 0 mm 2 mps 733 mmHg 43%
    14:00 +18°C° 0 mm 2 mps 733 mmHg 43%
    15:00 +17°C° 0 mm 2 mps 733 mmHg 47%
    16:00 +16°C° 0 mm 2 mps 732 mmHg 51%
    17:00 +16°C° 0 mm 2 mps 732 mmHg 55%
    18:00 +15°C° 0 mm 2 mps 732 mmHg 58%
    19:00 +15°C° 0 mm 1 mps 733 mmHg 61%
    20:00 +14°C° 0 mm 1 mps 733 mmHg 64%
    21:00 +14°C° 0 mm 1 mps 733 mmHg 67%
    22:00 +13°C° 0 mm 1 mps 732 mmHg 71%
    23:00 +13°C° 0 mm 1 mps 732 mmHg 74%

    Tomorrow, 21 January, Monday

    Time Temperature Precipitation Wind Pressure Humidity
    00:00 +12°C° 0 mm 1 mps 732 mmHg 75%
    01:00 +12°C° 0 mm 1 mps 732 mmHg 76%
    02:00 +12°C° 0 mm 2 mps 732 mmHg 77%
    03:00 +12°C° 0 mm 2 mps 732 mmHg 77%
    04:00 +12°C° 0 mm 2 mps 731 mmHg 77%
    05:00 +12°C° 0 mm 2 mps 731 mmHg 77%
    06:00 +11°C° 0.1 mm 3 mps 732 mmHg 75%
    07:00 +11°C° 0.1 mm 3 mps 732 mmHg 73%
    08:00 +11°C° 0.1 mm 3 mps 732 mmHg 71%
    09:00 +11°C° 0.4 mm 3 mps 732 mmHg 67%
    10:00 +12°C° 0.4 mm 2 mps 732 mmHg 64%
    11:00 +13°C° 0.4 mm 2 mps 732 mmHg 60%
    12:00 +12°C° 1 mm 2 mps 731 mmHg 61%
    13:00 +12°C° 1 mm 2 mps 731 mmHg 62%
    14:00 +12°C° 1 mm 2 mps 730 mmHg 63%
    15:00 +11°C° 0.4 mm 1 mps 730 mmHg 67%
    16:00 +11°C° 0.4 mm 1 mps 730 mmHg 71%
    17:00 +11°C° 0.4 mm 1 mps 729 mmHg 75%
    18:00 +11°C° 0.5 mm 1 mps 730 mmHg 76%
    19:00 +10°C° 0.5 mm 1 mps 730 mmHg 76%
    20:00 +10°C° 0.5 mm 1 mps 730 mmHg 76%
    21:00 +10°C° 0.6 mm 1 mps 730 mmHg 75%
    22:00 +10°C° 0.6 mm 1 mps 730 mmHg 75%
    23:00 +10°C° 0.6 mm 1 mps 730 mmHg 75%

    Day after tomorrow, 22 January, Tuesday

    Time Temperature Precipitation Wind Pressure Humidity
    00:00 +10°C° 0.1 mm 1 mps 730 mmHg 74%
    01:00 +10°C° 0.1 mm 1 mps 730 mmHg 74%
    02:00 +9°C° 0.1 mm 1 mps 729 mmHg 73%
    03:00 +9°C° 0 mm 1 mps 729 mmHg 68%
    04:00 +9°C° 0 mm 1 mps 729 mmHg 62%
    05:00 +9°C° 0 mm 1 mps 729 mmHg 57%
    06:00 +8°C° 0 mm 2 mps 729 mmHg 53%
    07:00 +8°C° 0 mm 2 mps 729 mmHg 50%
    08:00 +9°C° 0 mm 2 mps 729 mmHg 46%
    09:00 +10°C° 0 mm 2 mps 730 mmHg 41%
    10:00 +12°C° 0 mm 2 mps 730 mmHg 36%
    11:00 +13°C° 0 mm 2 mps 730 mmHg 31%
    12:00 +13°C° 0.1 mm 2 mps 729 mmHg 34%
    13:00 +13°C° 0.1 mm 2 mps 729 mmHg 37%
    14:00 +13°C° 0.1 mm 2 mps 729 mmHg 40%
    15:00 +13°C° 0 mm 2 mps 729 mmHg 46%
    16:00 +12°C° 0 mm 2 mps 729 mmHg 51%
    17:00 +12°C° 0 mm 1 mps 729 mmHg 57%
    18:00 +11°C° 0 mm 1 mps 730 mmHg 61%
    19:00 +10°C° 0 mm 1 mps 730 mmHg 64%
    20:00 +10°C° 0 mm 1 mps 731 mmHg 67%
    21:00 +9°C° 0 mm 1 mps 732 mmHg 65%
    22:00 +8°C° 0 mm 0 mps 732 mmHg 63%
    23:00 +8°C° 0 mm 0 mps 733 mmHg 61%

    23 January, Wednesday

    Time Temperature Precipitation Wind Pressure Humidity
    00:00 +9°C° 0 mm 1 mps 733 mmHg 59%
    01:00 +9°C° 0 mm 1 mps 733 mmHg 58%
    02:00 +9°C° 0 mm 1 mps 733 mmHg 56%
    03:00 +9°C° 0.1 mm 1 mps 733 mmHg 55%
    04:00 +9°C° 0.1 mm 1 mps 733 mmHg 54%
    05:00 +9°C° 0.1 mm 1 mps 733 mmHg 52%
    06:00 +9°C° 0.1 mm 1 mps 733 mmHg 51%
    07:00 +9°C° 0.1 mm 1 mps 734 mmHg 49%
    08:00 +9°C° 0.1 mm 1 mps 734 mmHg 47%
    09:00 +10°C° 0.2 mm 1 mps 734 mmHg 46%
    10:00 +9°C° 0.2 mm 2 mps 734 mmHg 44%
    11:00 +10°C° 0.2 mm 2 mps 735 mmHg 43%
    12:00 +10°C° 0.2 mm 2 mps 734 mmHg 45%
    13:00 +10°C° 0.2 mm 2 mps 734 mmHg 47%
    14:00 +12°C° 0.2 mm 2 mps 734 mmHg 49%
    15:00 +10°C° 0 mm 2 mps 734 mmHg 52%
    16:00 +10°C° 0 mm 2 mps 733 mmHg 56%
    17:00 +10°C° 0 mm 2 mps 733 mmHg 59%
    18:00 +10°C° 0 mm 2 mps 734 mmHg 59%
    19:00 +9°C° 0 mm 2 mps 734 mmHg 59%
    20:00 +9°C° 0 mm 2 mps 735 mmHg 60%
    21:00 +9°C° 0 mm 2 mps 735 mmHg 54%
    22:00 +9°C° 0 mm 2 mps 735 mmHg 48%
    23:00 +9°C° 0 mm 2 mps 735 mmHg 43%

    24 January, Thursday

    Time Temperature Precipitation Wind Pressure Humidity
    00:00 +9°C° 0 mm 2 mps 735 mmHg 39%
    01:00 +8°C° 0 mm 2 mps 735 mmHg 35%
    02:00 +8°C° 0 mm 2 mps 735 mmHg 31%
    03:00 +8°C° 0 mm 2 mps 735 mmHg 31%
    04:00 +8°C° 0 mm 2 mps 735 mmHg 31%
    05:00 +8°C° 0 mm 2 mps 735 mmHg 30%
    06:00 +8°C° 0 mm 2 mps 735 mmHg 31%
    07:00 +8°C° 0 mm 3 mps 736 mmHg 32%
    08:00 +8°C° 0 mm 3 mps 736 mmHg 33%
    09:00 +9°C° 0 mm 3 mps 737 mmHg 31%
    10:00 +10°C° 0 mm 3 mps 737 mmHg 28%
    11:00 +12°C° 0 mm 3 mps 737 mmHg 26%
    12:00 +12°C° 0 mm 3 mps 737 mmHg 27%
    13:00 +13°C° 0 mm 3 mps 736 mmHg 29%
    14:00 +13°C° 0 mm 3 mps 736 mmHg 30%
    15:00 +13°C° 0 mm 3 mps 736 mmHg 31%
    16:00 +13°C° 0 mm 3 mps 736 mmHg 33%
    17:00 +13°C° 0 mm 2 mps 736 mmHg 34%
    18:00 +11°C° 0 mm 3 mps 736 mmHg 34%
    19:00 +11°C° 0 mm 3 mps 737 mmHg 33%
    20:00 +10°C° 0 mm 3 mps 737 mmHg 33%
    21:00 +9°C° 0 mm 3 mps 737 mmHg 33%
    22:00 +9°C° 0 mm 3 mps 737 mmHg 33%
    23:00 +8°C° 0 mm 3 mps 737 mmHg 33%

    25 January, Friday

    Time Temperature Precipitation Wind Pressure Humidity
    00:00 +8°C° 0 mm 3 mps 737 mmHg 33%
    01:00 +8°C° 0 mm 3 mps 736 mmHg 33%
    02:00 +7°C° 0 mm 3 mps 736 mmHg 33%
    03:00 +7°C° 0 mm 3 mps 736 mmHg 32%
    04:00 +7°C° 0 mm 3 mps 736 mmHg 31%
    05:00 +5°C° 0 mm 3 mps 735 mmHg 31%
    06:00 +5°C° 0 mm 3 mps 736 mmHg 31%
    07:00 +5°C° 0 mm 3 mps 736 mmHg 31%
    08:00 +5°C° 0 mm 3 mps 736 mmHg 30%
    09:00 +8°C° 0 mm 3 mps 736 mmHg 28%
    10:00 +10°C° 0 mm 3 mps 736 mmHg 25%
    11:00 +12°C° 0 mm 4 mps 736 mmHg 22%
    12:00 +13°C° 0 mm 3 mps 735 mmHg 21%
    13:00 +14°C° 0 mm 3 mps 735 mmHg 19%
    14:00 +16°C° 0 mm 3 mps 734 mmHg 17%
    15:00 +14°C° 0 mm 3 mps 734 mmHg 18%
    16:00 +14°C° 0 mm 3 mps 734 mmHg 19%
    17:00 +14°C° 0 mm 2 mps 734 mmHg 20%
    18:00 +12°C° 0 mm 3 mps 734 mmHg 21%
    19:00 +11°C° 0 mm 3 mps 735 mmHg 22%
    20:00 +10°C° 0 mm 3 mps 735 mmHg 23%
    21:00 +10°C° 0 mm 3 mps 736 mmHg 24%
    22:00 +9°C° 0 mm 3 mps 736 mmHg 25%
    23:00 +9°C° 0 mm 3 mps 736 mmHg 25%
    Show more